Weather in Tverskoy

Russia / Krasnodar Krai     46°24′44″N   40°15′36″E
temp.,
°C
wind,
m/s
gust,
m/s
humid.,
%
clouds,
%
prec.,
mm/h
press.,
hPa
HPBL,
m
18 april, sun
sun1800:00+8ese117682 0.0 102211
03:00+8ene2274100 0.0 102149
06:00+8ene3574100 0.0 1019156
09:00+8ene2592100 1.5 1019205
12:00+8ne4791100 1.4 1018302
15:00+8ene3590100 1.4 1018252
18:00+9ene2391100 0.0 1018200
21:00+8e2295100 0.1 101845
19 april, mon
mon1900:00+9ene1196100 0.3 101718
03:00+9n1196100 0.9 101624
06:00+9wnw1198100 2.4 101617
09:00+10ene1292100 3.6 1016236
12:00+10e1295100 0.6 1016141
15:00+11ese1193100 1.1 1015167
18:00+11e119657 0.5 101521
21:00+9e229798 0.5 101518
20 april, tue
tue2000:00+10ese3698100 0.4 1013157
03:00+11ese4999100 4.3 1010266
06:00+12e61398100 2.4 1006336
09:00+14ese7158393 2.4 1003532
12:00+20s466997 0.1 1003728
15:00+20sw8971100 0.3 10041292
18:00+16sw7117192 0.1 1005895
21:00+14ssw8156292 0.1 1007717
21 april, wed
wed2100:00+10ssw10177684 0.0 10091128
03:00+10sw101675100 0.0 10111245
06:00+10wsw81485100 0.1 10141080
09:00+11wsw8118283 0.1 1016842
12:00+14wsw786487 0.2 10171468
15:00+15wsw685798 0.6 10181779
18:00+13w47672 0.1 1019525
21:00+9wsw34760 0.1 102156
22 april, thu
thu2200:00+8w22750 0.0 102220
03:00+7w22740 0.0 102213
06:00+7wnw007537 0.0 102310
09:00+12ese1160100 0.0 1023353
12:00+16e1148100 0.0 10231326
15:00+17ese224312 0.0 10221854
18:00+16ese1156100 0.0 102125
21:00+13sse2264100 0.0 102241